Other Public Products
Issued by NWS Grand Forks, ND

Home | Current Version | Previous Version | Graphics & Text | Print | Product List | Glossary On
Versions: 1 2 3 4 5 6 7 8 9 10 11 12 13 14 15 16 17 18 19 20 21 22 23 24 25 26 27 28 29 30 31 32 33 34 35 36 37 38 39 40 41 42 43 44 45 46 47 48 49 50
000
FPUS83 KFGF 301531
OPUFGF
PRAIRIE TO PINES WEATHER ROUNDUP
NATIONAL WEATHER SERVICE EASTERN NORTH DAKOTA/GRAND FORKS ND
1000 AM CDT SAT APR 30 2016

 **SATELLITE DATA USED TO AUGMENT SKY COVER AT AUTOMATED STATIONS**
 *****  WEATHER ACROSS EASTERN NORTH DAKOTA  *****

CITY           SKY/WX    TMP DP  RH WIND       PRES   REMARKS
GRAND FORKS    MOSUNNY   53  30  41 NE16      30.28S
GRAND FORKS AF SUNNY     53  31  43 E16       30.28S
GRAND CITY NWS NOT AVBL
BUXTON           N/A     54  32  43 NE15G26     N/A
DEVILS LAKE    SUNNY     52  34  50 E16       30.28S
FARGO          MOSUNNY   53  32  44 NE17G29   30.20S
WAHPETON ARPT  MOSUNNY   52  32  46 E18G24    30.16R
$$

 *****  WEATHER ACROSS CENTRAL AND WESTERN NORTH DAKOTA  *****

CITY           SKY/WX    TMP DP  RH WIND       PRES   REMARKS
JAMESTOWN      CLOUDY    51  32  48 NE21      30.20S
BISMARCK       MOSUNNY   49  37  63 E15       30.20R
MINOT          SUNNY     54  31  41 NE9       30.28S
MINOT AFB      SUNNY     52  33  46 E9        30.27F
GARRISON         N/A     52  33  48 NE13G18   30.23R
WILLISTON      SUNNY     52  33  48 NE9       30.27S
DICKINSON      SUNNY     45  32  60 NE13      30.18R
HETTINGER      CLOUDY    46  33  60 NE16      30.16R
$$

 *****  OTHER OBSERVATIONS NORTHEAST NORTH DAKOTA  *****

CITY           SKY/WX    TMP DP  RH WIND       PRES   REMARKS
WALHALLA       FAIR      50  34  53 N5        30.34F
LANGDON        FAIR      54  32  43 E15G23    30.31F
CAVALIER       FAIR      50  36  57 NE9       30.33F
GRAFTON        FAIR      54  32  43 NE14G21   30.32F
CANDO          FAIR      55  32  41 NE14      30.31F
FORT TOTTEN    NOT AVBL
ROLLA          FAIR      52  30  43 E9        30.32S
RUGBY          FAIR      54  32  43 E14       30.28S
 ***** THE ABOVE OBSERVATIONS ARE NON NWS ARE NOT QUALITY
        CONTROLLED AND MAY MIS-REPORT RAIN FOR SNOW...
$$

 *****  OTHER OBSERVATIONS SOUTHEAST NORTH DAKOTA *****

CITY           SKY/WX    TMP DP  RH WIND       PRES   REMARKS
COOPERSTOWN    NOT AVBL
VALLEY CITY    FAIR      50  32  50 NE20      30.22S
OAKES            N/A    N/A N/A N/A MISG        N/A
GWINNER        FAIR      52  34  50 NE25G31   30.14F
BUFFALO          N/A     52  30  42 E22         N/A
WYNDMERE         N/A     54  34  47 NE17        N/A
 ***** THE ABOVE OBSERVATIONS ARE NON NWS ARE NOT QUALITY
       CONTROLLED AND MAY MIS-REPORT RAIN FOR SNOW...
$$

  *****  WEATHER ACROSS NORTHERN MINNESOTA  *****

CITY           SKY/WX    TMP DP  RH WIND       PRES   REMARKS
FLAG ISLAND    SUNNY     46  34  61 N8        30.35F
WARROAD        SUNNY     46  36  66 NE8       30.35F
ROSEAU         SUNNY     52  36  54 NE17      30.34S
HALLOCK        SUNNY     54  28  37 E9        30.32F
THF RVR FALLS  SUNNY     52  27  37 E23       30.28F
HALSTAD        NOT AVBL
FOSSTON        SUNNY     50  30  46 NE12G17   30.24F
BAUDETTE       SUNNY     51  26  37 NE13      30.33F
WASKISH        SUNNY     52  28  40 NE15G22   30.28F
CROOKSTON      SUNNY     54  28  37 E18G28    30.27S
$$
  *****  WEATHER ACROSS CENTRAL AND WEST MINNESOTA  *****

CITY           SKY/WX    TMP DP  RH WIND       PRES   REMARKS
BEMIDJI        SUNNY     50  32  50 E16       30.24S
PARK RAPIDS    SUNNY     50  29  44 E12G26    30.19F
WADENA         SUNNY     48  30  49 NE20G29   30.16S
DETROIT LAKES  SUNNY     50  32  50 E18G25    30.19S
MOORHEAD       SUNNY     52  34  50 E20G26    30.20S
FERGUS FALLS   MOSUNNY   50  32  50 E17G31    30.14R
ELBOW LAKE     FAIR      48  32  54 NE18G26   30.14R
MORRIS MN      PTSUNNY   48  36  61 E26       30.09S
STAPLES        CLOUDY    48  30  49 NE14G21   30.17R
WHEATON        CLOUDY    52  36  54 NE20G25   30.13S
$$
  *****  WEATHER ELSEWHERE ACROSS MINNESOTA  *****

CITY           SKY/WX    TMP DP  RH WIND       PRES   REMARKS
DULUTH         MOSUNNY   47  32  56 E21G29    30.24R
INTRNTL FALLS  SUNNY     47  32  56 N12       30.32S
ELY            MOSUNNY   46  25  42 NE10G21   30.27S
CLOQUET        SUNNY     46  28  49 E18G31    30.22S
BRAINERD       CLOUDY    49  31  49 NE20G28   30.18S
HIBBING        SUNNY     47  29  49 E13       30.25S
ALEXANDRIA     CLOUDY    48  31  51 E25G32    30.13R
SAINT CLOUD    CLOUDY    45  33  63 NE15G22   30.13R
MINNEAPOLIS    CLOUDY    50  32  50 E16       30.08F
$$

  *****  WEATHER ACROSS SOUTH DAKOTA  *****

CITY           SKY/WX    TMP DP  RH WIND       PRES   REMARKS
SIOUX FALLS    LGT RAIN  43  38  82 NE20G26   29.94R
BROOKINGS      CLOUDY    41  34  76 NE16G23   29.97F
WATERTOWN      CLOUDY    43  33  68 NE20G29   30.03R
HURON          CLOUDY    45  36  70 NE20G25   30.01F
SISSETON         N/A     49  33  54 E24       30.10S
ABERDEEN       CLOUDY    50  35  56 NE21      30.10S
MITCHELL       CLOUDY    46  41  82 NE15      29.97F
PIERRE         CLOUDY    46  38  73 NE17G24   30.04R
MOBRIDGE       MOSUNNY   51  39  63 E15       30.10S
RAPID CITY     CLOUDY    41  37  86 N15       30.08R
$$

  *****  SOME WEATHER IN NEARBY STATES *****

CITY           SKY/WX    TMP DP  RH WIND       PRES   REMARKS
GLASGOW MT     MOSUNNY   51  33  50 E14       30.24R
GREAT FALLS MT CLOUDY    42  37  82 CALM      30.18R
CHEYENNE WY    LGT SNOW  30  27  88 N15G25    29.92S VSB 3/4 WCI  19
SCOTTSBLUFF NE MIX PCPN  35  31  85 N20       29.94R WCI  24
OMAHA NE       CLOUDY    47  44  90 E12G21    29.71S
DES MOINES IA  LGT RAIN  47  43  86 E14G23    29.76F FOG
DAVENPORT IA   LGT RAIN  48  45  89 E23       29.88F FOG
CHICAGO IL     CLOUDY    48  39  71 E13       30.04S
EAU CLAIRE WI  CLOUDY    48  33  56 E14       30.10F
LA CROSSE WI   CLOUDY    47  32  56 E9        30.05F
$$

  *****  SOME NATIONAL WEATHER *****

CITY           SKY/WX    TMP DP  RH WIND       PRES   REMARKS
LA GUARDIA NY  PTSUNNY   55  39  54 VRB3      30.20F
RALEIGH NC     CLOUDY    61  56  83 SE9       30.15R
ATLANTA GA     PTSUNNY   80  60  50 S10       30.00R
NEW ORLEANS LA CLOUDY    81  72  74 SE14      29.83R
OKLAHOMA CITY  MOSUNNY   56  47  71 NW12      29.81R
ALBUQUERQUE NM MOSUNNY   49  37  63 SW9       29.90R
SALT LAKE CITY MOSUNNY   50  39  66 W5        29.93R
LOS ANGELES CA PTSUNNY   57  52  82 CALM      29.85R
BOISE ID       SUNNY     50  36  58 NW13      30.05R
SEATTLE WA     PTSUNNY   49  45  86 CALM      30.37R
$$

*** WEATHER ACROSS MANITOBA...SASKATCHEWAN AND ONTARIO ***
                ***ONTARIO***

CITY           SKY/WX    TMP DP  RH WIND       PRES   REMARKS
GERALDTON      MOSUNNY   41  28  60 NE9G17    30.34F
THUNDER BAY    PTSUNNY   48  27  43 NE10G24   30.31S
SIOUX LOOKOUT  MOSUNNY   43  23  45 VRB5      30.37F
TORONTO        MOSUNNY   54  25  32 SE10      30.21S
BIG TROUT LK   MOSUNNY   36  28  75 SW7       30.43F
PICKLE LAKE    PTSUNNY   41  27  56 NW3       30.39S
DRYDEN         SUNNY     46  25  42 NE8       30.37R
KENORA         MOSUNNY   48  25  40 N10       30.37S
$$
                *** MANITOBA***

CITY           SKY/WX    TMP DP  RH WIND       PRES   REMARKS
BRANDON        MOSUNNY   55  27  33 E15G21    30.36R
DAUPHIN        SUNNY     50  28  43 NE3       30.41R
ISLAND LAKE    MOSUNNY   46  23  39 VRB2      30.41
PILOT MOUND      N/A     52  30  43 E8          N/A
THE PAS        CLOUDY    54  30  40 VRB2      30.39R
THOMPSON       PTSUNNY   50  27  40 W3        30.36S
WINNIPEG       MOSUNNY   52  32  46 NE5       30.38S
LYNN LAKE      SUNNY     57  27  30 S3        30.29S
CHURCHILL      PTSUNNY   30  23  74 SE12      30.47F WCI  21
GILLAM         PTSUNNY   43  21  42 SE7       30.42
$$
                ***SASKATCHEWAN***

CITY           SKY/WX    TMP DP  RH WIND       PRES   REMARKS
ESTEVAN        MOSUNNY   50  28  43 E9        30.32R
KINDERSLEY     PTSUNNY   52  30  43 SE13      30.26R
LLOYDMINSTER   MOSUNNY   52  28  40 S5        30.23S
PRINCE ALBERT  MOSUNNY   55  28  35 S10       30.34R
REGINA         MOSUNNY   54  25  32 SE16      30.34R
YORKTON        SUNNY     54  25  32 SE9       30.38S
N. BATTLEFORD  SUNNY     55  28  35 SE9       30.29R  C1F1C2F2C3F3C4F4C5F5C6F6C7F7C8F8C9F9CaFaCbFbCcFcCdFdCe!


USA.gov is the U.S. government's official web portal to all federal, state and local government web resources and services.